Showing default

FORMOSAT 3C, 29049

Orbit data source: Space-Track

FORMOSAT 3C, 29049 is a payload satellite owned by NSPO (TW) in LEO that was launched on Sat, 15 Apr 2006 UTC via an MINOTAUR I launch vehicle from the Air Force Western Test Range (AFWTR). Payload-class satellites include a variety of spacecraft equipped with specific instruments for various scientific and technological missions. These include communications satellites like Starlink; space stations such as the ISS; scientific satellites like the Hubble; Earth observation satellites from companies like Planet Labs, Umbra, and HawkEye 360; GPS; miniature CubeSats for education and research; and military/defense satellites.

Loading next visibility...
Identifier
29049, 2006-011C
Orbit
LEO
Country
Flag of TWTW / TWN
Related business
Manufacturer
OSC
Mission
Non-operational Civil Science
Bus & Motor
MICROSTAR, Unknown motor
Mass
62 kg wet, 56 kg dry
Launch date (UTC)
2006-04-15 (20 years ago)
Launch vehicle
MINOTAUR I
Launch site
Air Force Western Test Range (AFWTR)
Object type
Payload
Rocket body
Debris
Shape & HBR
Cyl + 2 Pan, 2.1 m
Radar Cross Section
1.446 m², Medium (>0.1 m² and < 1m²)

Expand to show TLE details & history
Last TLE update: 2 days ago

TLE from 2 days ago
0 FORMOSAT 3C
1 29049U 06011C   26171.36114362  .00000233  00000-0  10278-3 0  9994
2 29049  72.0191  37.4091 0034498 203.9211 156.0327 14.31406276 53125
Epoch: 2026-06-20T08:40Z
TLE epoch observation values (Epoch: 2026-06-20T08:40:02.808Z)
Latitude
0.00004°
Longitude
-1.17946°
Altitude
812.123 km
Speed
7.436 km/s
True Right ascension
02h 29m 38s
True Declination
0° 00' 00"
Sunlit
Object was in daylight at epoch
Visualization orbit readout
Latitude
Unknown
Longitude
Unknown
Altitude
Unknown
Speed
Unknown
Apparent Right ascension
Unknown
Apparent Declination
Unknown
Sunlit
N/A
Visualization observer readout
Local Sidereal Time
23:08:34
Azimuth
Unknown
Elevation
Unknown
Doppler factor
Unknown
Orbital elements
Apogee altitude
809.555 km
Perigee altitude
760.133 km
Semi-major axis
7,162.981 km
Eccentricity
0.00345
Inclination
72.0191°
RAAN
37.4091°
Arg. of periapsis
203.9211°
True anomaly
156.19265°
Mean anomaly
156.0327°
Eccentric anomaly
156.11274°
Mean motion
3.58016 °/min
Orbital period
100.55 mins
BSTAR
0.00010278
Loading maneuver chart data...
Computing Atmospheric mass density...
Loading historical data...
Loading historical data...
Loading historical data...
Loading historical data...
Loading historical data...
Loading historical data...
Loading historical data...

Documentation

Showing up to 5 results
|